User: anonymous   Login
Location: Edinburgh
(55.9500°N, 3.1600°W)
Time: 08:13:34
(UTC+00:00)
Language:

NANOSAT C BR1 - Orbit

View from above orbital plane
View from above orbital plane
View from above satellite
View from above satellite

Ground track
Ground track

The orbit data is extracted from the following two-line orbital elements,

1 40024U 14033Q   19317.72726564 +.00000392 +00000-0 +46618-4 0  9994
2 40024 097.9162 239.8607 0010914 289.1119 070.8917 14.89932056292964
Epoch (UTC): 13 November 2019 17:27:15
Eccentricity: 0.0010914
inclination: 97.9162°
perigee height: 590 km
apogee height: 606 km
right ascension of ascending node: 239.8607°
argument of perigee: 289.1119°
revolutions per day: 14.89932056
mean anomaly at epoch: 70.8917°
orbit number at epoch: 29296

The dashed part of the orbit path shows where the satellite is in the earth's shadow,  

DLR